Content
SEND FEEDBACK

Daily
Averages
Monthly
Summary
United States of America

FORT LEE, NEW JERSEY


Home > North America > United States > New Jersey
Elevation: 128 feet     Latitude: 40 46N     Longitude: 073 58W

WEATHER
 
SELECT A DAY
Number of Records: 153,133;   Date Range: 11/1/95 - 12/23/14
 
SHARE

PRINT THIS DATA

[ ← Previous Day ]
WEATHER ALMANAC - APRIL 26, 2013
[ Next Day → ]
[ °C ]   °F
Weather ElementAverageHighLow
Temperature57.7 °F66 °F (2:51 pm)51.1 °F (5:51 am)
Dewpoint28.9 °F32 °F (8:51 am)19.9 °F (5:51 pm)
Humidity34.7 %46 % (7:51 am)18 % (5:51 pm)
Barometer30.35 in30.41 in (11:51 pm)30.27 in (1:51 am)
Wind Speed3.2 mph12.7 mph (10:51 pm)
Wind Gust23 mph (10:51 pm)
Weather ElementAverage
Visibility10 mi
Wind DirectionENE (56.5 °)

Weather ElementTotal
Precipitation---
Heating Degree Days6.5 (Base 65)
Growing Degree Days8.6 (Base 50)
Averaged from 23 records on April 26, 2013
WEATHER CONDITIONS BREAKOUT
WIND DIRECTION BREAKOUT
WEATHER BY HOUR - APRIL 26, 2013
[ °C ]   °F
Local TimeTemperatureDewpointHumidityBarometerVisibilityWind DirectionWind SpeedGust SpeedPrecipitationEventsConditions
1:51 AM52.0 °F30.9 °F45 %30.27 in10.0 miCalmClear
2:51 AM53.1 °F30.9 °F43 %30.27 in10.0 miCalmClear
3:51 AM52.0 °F28.9 °F41 %30.28 in10.0 miCalmClear
4:51 AM52.0 °F28.9 °F41 %30.30 in10.0 miWest (280°)4.6 mphClear
5:51 AM51.1 °F30.0 °F44 %30.32 in10.0 miCalmClear
6:51 AM51.1 °F30.0 °F44 %30.35 in10.0 miCalmClear
7:51 AM51.1 °F30.9 °F46 %30.37 in10.0 miVariable4.6 mphClear
8:51 AM54.0 °F32.0 °F43 %30.38 in10.0 miVariable3.5 mphClear
9:51 AM55.9 °F32.0 °F40 %30.39 in10.0 miVariable5.8 mphClear
10:51 AM59.0 °F32.0 °F36 %30.39 in10.0 miVariable3.5 mphClear
11:51 AM61.0 °F30.9 °F32 %30.38 in10.0 miWest (270°)6.9 mphClear
12:51 PM63.0 °F30.9 °F30 %30.36 in10.0 miVariable3.5 mphClear
1:51 PM64.0 °F28.9 °F27 %30.35 in10.0 miWSW (240°)3.5 mphClear
2:51 PM66.0 °F26.1 °F22 %30.34 in10.0 miNorthClear
3:51 PM66.0 °F26.1 °F22 %30.33 in10.0 miVariable3.5 mphClear
4:51 PM66.0 °F23.0 °F20 %30.33 in10.0 miCalmClear
5:51 PM64.9 °F19.9 °F18 %30.33 in10.0 miWest (280°)3.5 mphClear
6:51 PM63.0 °F21.0 °F20 %30.34 in10.0 miVariable3.5 mphClear
7:51 PM59.0 °F28.0 °F31 %30.35 in10.0 miSSE (160°)4.6 mphClear
8:51 PM57.0 °F30.9 °F37 %30.37 in10.0 miCalmClear
9:51 PM57.0 °F32.0 °F39 %30.38 in10.0 miCalmClear
10:51 PM55.9 °F30.0 °F37 %30.39 in10.0 miNNE (30°)12.7 mph23.0 mphClear
11:51 PM54.0 °F30.0 °F40 %30.41 in10.0 miNE (40°)6.9 mphClear
Hourly data recorded from KNYC, located miles away from Fort Lee, New Jersey







STORIES FROM OUR PARTNERS